LEMD Weather Reports


Display with metric or nautical units.
time (UTC)temp
F
wind
direction
speed
MPH
gust
MPH
rain 1hr
in
rain 24hr
in
rain mn
in
humidity
%
barometer
mb
20260503190004 66 240 15.0 0.0 0.00 0.00 0.00 48 1011.0
20260503184504 66 240 15.0 0.0 0.00 0.00 0.00 48 1011.0
20260503183004 68 250 14.0 0.0 0.00 0.00 0.00 45 1011.0
20260503180004 68 250 14.0 0.0 0.00 0.00 0.00 45 1011.0
20260503174503 68 250 14.0 0.0 0.00 0.00 0.00 45 1011.0
20260503173004 68 230 15.0 0.0 0.00 0.00 0.00 45 1011.0
20260503171504 68 230 15.0 0.0 0.00 0.00 0.00 45 1011.0
20260503081504 55 0 2.0 0.0 0.00 0.00 0.00 100 1014.0
20260503054503 54 340 5.0 0.0 0.00 0.00 0.00 100 1014.0
20260503053004 52 360 1.0 0.0 0.00 0.00 0.00 100 1014.0
20260503044504 54 360 1.0 0.0 0.00 0.00 0.00 100 1014.0
20260503043004 54 0 2.0 0.0 0.00 0.00 2.00 100 1014.0
20260503041503 54 0 2.0 0.0 0.00 0.00 2.00 100 1014.0
20260503040005 54 330 1.0 0.0 0.00 0.00 0.00 100 1014.0
20260503033004 54 350 1.0 0.0 0.00 0.00 0.00 100 1014.0
20260503024504 54 0 1.0 0.0 0.00 0.00 0.00 100 1015.0
20260503021504 54 80 1.0 0.0 0.00 0.00 0.00 100 1015.0
20260503020005 55 0 2.0 0.0 0.00 0.00 0.00 100 1015.0
20260503014504 55 0 2.0 0.0 0.00 0.00 0.00 100 1015.0
20260503010004 55 0 2.0 0.0 0.00 0.00 0.00 100 1015.0
20260503004504 55 0 2.0 0.0 0.00 0.00 0.00 100 1015.0
20260503003004 55 0 1.0 0.0 0.00 0.00 0.00 100 1016.0
20260502234504 57 70 1.0 0.0 0.00 0.00 0.00 100 1015.0
20260502231504 55 0 2.0 0.0 0.00 0.00 0.00 100 1015.0
20260502230005 59 160 3.0 0.0 0.00 0.00 0.00 87 1016.0
20260502224504 59 160 3.0 0.0 0.00 0.00 0.00 87 1016.0
20260502223004 57 0 2.0 0.0 0.00 0.00 0.00 82 1016.0
20260502221504 57 0 2.0 0.0 0.00 0.00 0.00 82 1016.0
20260502220006 57 0 1.0 0.0 0.00 0.00 0.00 82 1016.0
20260502214504 57 0 1.0 0.0 0.00 0.00 0.00 82 1016.0
20260502210004 63 210 6.0 0.0 0.00 0.00 0.00 67 1015.0
20260502204505 63 210 6.0 0.0 0.00 0.00 0.00 67 1015.0
20260502203005 63 240 6.0 0.0 0.00 0.00 0.00 67 1015.0
20260502201503 63 240 6.0 0.0 0.00 0.00 0.00 67 1015.0
20260502194503 63 240 7.0 0.0 0.00 0.00 0.00 67 1015.0
20260502191504 64 250 6.0 0.0 0.00 0.00 0.00 63 1015.0